Weather History for K20V - July, 2013

Change the Weather History Date:

Wednesday, July 10, 2013

  Actual Average (KEGE) Record (KEGE)
Temperature  
Mean Temperature 66 °F -  
Max Temperature 89 °F 86 °F 96 °F (1976)
Min Temperature 42 °F 47 °F 34 °F (1959)
Growing Degree Days 16 (Base 50)    
Moisture  
Dew Point 36 °F    
Average Humidity 42    
Maximum Humidity 87    
Minimum Humidity 9    
Precipitation  
Precipitation 0.07 in - - ()
Sea Level Pressure  
Sea Level Pressure 30.34 in    
Wind  
Wind Speed 2 mph (North)    
Max Wind Speed 20 mph    
Max Gust Speed 37 mph    
Visibility 10 miles    
Events Rain    
Averages and records for this station are not official NWS values.
T = Trace of Precipitation, MM = Missing Value Source: NWS Daily Summary

Daily Weather History Graph

Daily Weather History Graph

Search for Another Location

Airport or City:

Trip Planner

Search our weather history database for the weather conditions in past years. The results will help you decide how hot, cold, wet, or windy it might be!

Date:

Astronomy

Jul. 10, 2013 Rise Set
Actual Time 5:45 AM MDT 8:35 PM MDT
Civil Twilight 5:13 AM MDT 9:07 PM MDT
Nautical Twilight 4:32 AM MDT 9:48 PM MDT
Astronomical Twilight 3:46 AM MDT 10:34 PM MDT
Moon 8:09 AM MDT (7/10) 9:47 PM MDT (7/10)
Length of Visible Light 15h 54m
Length of Day
14h 50m
Waxing Crescent, 5% of the Moon is Illuminated
Jul 10
Waxing Crescent
Jul 15
First Quarter
Jul 22
Full
Jul 29
Last Quarter
Aug 6
New

Hourly Weather History & Observations

Time (MDT) Temp. Dew Point Humidity Pressure Visibility Wind Dir Wind Speed Gust Speed Precip Events Conditions
12:16 AM 53.6 °F 42.8 °F 67% 30.42 in 10.0 mi Calm Calm - N/A   Clear
12:36 AM 53.6 °F 44.6 °F 72% 30.42 in 10.0 mi Calm Calm - N/A   Clear
12:56 AM 51.8 °F 41.0 °F 67% 30.42 in 10.0 mi Calm Calm - N/A   Clear
1:16 AM 51.8 °F 42.8 °F 71% 30.42 in 10.0 mi Calm Calm - N/A   Clear
1:36 AM 50.0 °F 41.0 °F 71% 30.41 in 10.0 mi Calm Calm - N/A   Clear
1:56 AM 50.0 °F 42.8 °F 76% 30.41 in 10.0 mi Calm Calm - N/A   Clear
2:16 AM 50.0 °F 41.0 °F 71% 30.41 in 10.0 mi Calm Calm - N/A   Clear
2:36 AM 50.0 °F 41.0 °F 71% 30.41 in 10.0 mi Calm Calm - N/A   Clear
2:56 AM 50.0 °F 42.8 °F 76% 30.41 in 10.0 mi Calm Calm - N/A   Clear
3:16 AM 50.0 °F 42.8 °F 76% 30.41 in 10.0 mi Calm Calm - N/A   Clear
3:34 AM 50.0 °F 42.8 °F 76% 30.41 in 10.0 mi Calm Calm - N/A   Clear
3:56 AM 46.4 °F 41.0 °F 81% 30.41 in 10.0 mi Calm Calm - N/A   Clear
4:16 AM 46.4 °F 42.8 °F 87% 30.41 in 10.0 mi Calm Calm - N/A   Clear
4:36 AM 44.6 °F 39.2 °F 81% 30.41 in 10.0 mi Calm Calm - N/A   Clear
4:55 AM 44.6 °F 41.0 °F 87% 30.41 in 10.0 mi Calm Calm - N/A   Clear
5:16 AM 42.8 °F 39.2 °F 87% 30.41 in 10.0 mi Calm Calm - N/A   Clear
5:36 AM 46.4 °F 41.0 °F 81% 30.41 in 10.0 mi Calm Calm - N/A   Clear
5:56 AM 44.6 °F 41.0 °F 87% 30.42 in 10.0 mi Calm Calm - N/A   Clear
6:16 AM 46.4 °F 41.0 °F 81% 30.42 in 10.0 mi Calm Calm - N/A   Clear
6:35 AM 46.4 °F 41.0 °F 81% 30.42 in 10.0 mi Calm Calm - N/A   Clear
6:56 AM 50.0 °F 42.8 °F 76% 30.43 in 10.0 mi Calm Calm - N/A   Clear
7:16 AM 50.0 °F 42.8 °F 76% 30.43 in 10.0 mi Calm Calm - N/A   Clear
7:36 AM 51.8 °F 42.8 °F 71% 30.44 in 10.0 mi Calm Calm - N/A   Clear
7:56 AM 51.8 °F 41.0 °F 67% 30.44 in 10.0 mi Calm Calm - N/A   Clear
8:15 AM 53.6 °F 42.8 °F 67% 30.43 in 10.0 mi Calm Calm - N/A   Clear
8:36 AM 55.4 °F 42.8 °F 63% 30.43 in 10.0 mi Calm Calm - N/A   Clear
8:56 AM 59.0 °F 42.8 °F 55% 30.43 in 10.0 mi Calm Calm - N/A   Clear
9:16 AM 60.8 °F 39.2 °F 45% 30.42 in 10.0 mi Calm Calm - N/A   Clear
9:36 AM 64.4 °F 41.0 °F 42% 30.42 in 10.0 mi Calm Calm - N/A   Clear
9:55 AM 68.0 °F 41.0 °F 37% 30.41 in 10.0 mi Calm Calm - N/A   Clear
10:15 AM 66.2 °F 41.0 °F 40% 30.41 in 10.0 mi Calm Calm - N/A   Scattered Clouds
10:36 AM 71.6 °F 37.4 °F 29% 30.40 in 10.0 mi Calm Calm - N/A   Scattered Clouds
10:56 AM 73.4 °F 35.6 °F 25% 30.39 in 10.0 mi ENE 3.5 mph - N/A   Scattered Clouds
11:16 AM 73.4 °F 37.4 °F 27% 30.39 in 10.0 mi Calm Calm - N/A   Clear
11:36 AM 77.0 °F 37.4 °F 24% 30.37 in 10.0 mi Calm Calm - N/A   Clear
11:56 AM 80.6 °F 35.6 °F 20% 30.36 in 10.0 mi Calm Calm - N/A   Clear
12:16 PM 82.4 °F 33.8 °F 17% 30.35 in 10.0 mi SSW 3.5 mph - N/A   Clear
12:35 PM 73.4 °F 42.8 °F 33% 30.38 in 7.0 mi SW 19.6 mph 36.8 mph 0.06 in Rain Rain
12:56 PM 77.0 °F 50.0 °F 39% 30.35 in 10.0 mi Calm Calm - 0.07 in   Scattered Clouds
1:16 PM 80.6 °F 35.6 °F 20% 30.34 in 10.0 mi Calm Calm - N/A   Clear
1:36 PM 82.4 °F 41.0 °F 23% 30.33 in 10.0 mi East 8.1 mph - N/A   Scattered Clouds
1:56 PM 80.6 °F 37.4 °F 21% 30.32 in 10.0 mi Calm Calm - N/A   Scattered Clouds
2:16 PM 82.4 °F 30.2 °F 15% 30.32 in 10.0 mi North 4.6 mph - N/A   Scattered Clouds
2:36 PM 82.4 °F 24.8 °F 12% 30.31 in 10.0 mi Calm Calm - N/A   Scattered Clouds
2:56 PM 86.0 °F 26.6 °F 12% 30.30 in 10.0 mi NNW 4.6 mph - N/A   Scattered Clouds
3:16 PM 89.6 °F 26.6 °F 10% 30.29 in 10.0 mi North 5.8 mph - N/A   Clear
3:36 PM 89.6 °F 28.4 °F 11% 30.29 in 10.0 mi NNE 10.4 mph - N/A   Clear
3:56 PM 89.6 °F 28.4 °F 11% 30.28 in 10.0 mi NNW 4.6 mph - N/A   Clear
4:16 PM 89.6 °F 26.6 °F 10% 30.27 in 10.0 mi North 8.1 mph - N/A   Scattered Clouds
4:35 PM 86.0 °F 26.6 °F 12% 30.26 in 10.0 mi North 5.8 mph - N/A   Scattered Clouds
4:56 PM 89.6 °F 23.0 °F 9% 30.25 in 10.0 mi NNW 12.7 mph 18.4 mph N/A   Scattered Clouds
5:16 PM 82.4 °F 23.0 °F 11% 30.25 in 10.0 mi North 10.4 mph - N/A   Scattered Clouds
5:36 PM 86.0 °F 21.2 °F 9% 30.25 in 10.0 mi North 10.4 mph 21.9 mph N/A   Scattered Clouds
5:55 PM 84.2 °F 19.4 °F 9% 30.24 in 10.0 mi NNW 9.2 mph 16.1 mph N/A   Clear
6:15 PM 82.4 °F 21.2 °F 10% 30.24 in 10.0 mi NNW 9.2 mph - N/A   Clear
6:36 PM 82.4 °F 21.2 °F 10% 30.24 in 10.0 mi North 10.4 mph 16.1 mph N/A   Clear
6:56 PM 80.6 °F 23.0 °F 12% 30.24 in 10.0 mi North 8.1 mph - N/A   Clear
7:16 PM 82.4 °F 21.2 °F 10% 30.23 in 10.0 mi North 8.1 mph - N/A   Scattered Clouds
7:35 PM 82.4 °F 23.0 °F 11% 30.22 in 10.0 mi NNW 9.2 mph - N/A   Clear
7:56 PM 80.6 °F 23.0 °F 12% 30.22 in 10.0 mi NW 3.5 mph - N/A   Clear
8:15 PM 78.8 °F 26.6 °F 15% 30.23 in 10.0 mi NNW 3.5 mph - N/A   Scattered Clouds
8:36 PM 77.0 °F 30.2 °F 18% 30.24 in 10.0 mi North 3.5 mph - N/A   Scattered Clouds
8:56 PM 75.2 °F 33.8 °F 22% 30.25 in 10.0 mi Calm Calm - N/A   Scattered Clouds
9:16 PM 71.6 °F 33.8 °F 25% 30.25 in 10.0 mi Calm Calm - N/A   Scattered Clouds
9:36 PM 69.8 °F 35.6 °F 28% 30.26 in 10.0 mi South 3.5 mph - N/A   Scattered Clouds
9:56 PM 69.8 °F 41.0 °F 35% 30.27 in 10.0 mi Calm Calm - N/A   Scattered Clouds
10:16 PM 66.2 °F 41.0 °F 40% 30.27 in 10.0 mi SSW 4.6 mph - N/A   Scattered Clouds
10:36 PM 69.8 °F 37.4 °F 31% 30.27 in 10.0 mi Calm Calm - N/A   Scattered Clouds
10:56 PM 68.0 °F 39.2 °F 35% 30.27 in 10.0 mi SE 5.8 mph - N/A   Scattered Clouds
11:16 PM 66.2 °F 39.2 °F 37% 30.28 in 10.0 mi East 6.9 mph - N/A   Clear
11:36 PM 60.8 °F 41.0 °F 48% 30.28 in 10.0 mi ESE 5.8 mph - N/A   Clear
11:56 PM 60.8 °F 41.0 °F 48% 30.28 in 10.0 mi East 5.8 mph - N/A   Clear